Location: Bonny Doon Airfield
(37.0704°N, 122.1252°W)
Time: 06:20:11
(UTC-08:00)

BREEZE M DEB (TANK) - Visible Passes

Search period start: 29 January 2015 00:00
Search period end: 08 February 2015 00:00
Orbit: 343 x 13799 km, 49.6° (Epoch: 26 January)

Date Brightness Start Highest point End Pass type
(mag) Time Alt. Az. Time Alt. Az. Time Alt. Az.
29 Jan 4.1 18:04:00 10° NW 18:16:41 68° NNE 18:20:27 10° ESE visible
30 Jan 5.6 20:08:50 10° WNW 20:12:01 15° WSW 20:13:06 13° SW visible
31 Jan 9.0 06:37:26 10° SSE 07:58:31 37° ESE 08:42:45 10° ENE visible
01 Feb 5.2 19:31:13 10° WNW 19:36:55 25° WSW 19:39:13 13° S visible
02 Feb 9.2 06:05:40 10° SSE 07:17:02 32° ESE 08:05:24 10° ENE visible
03 Feb 4.9 18:53:41 10° WNW 19:01:41 39° SW 19:04:46 10° SSE visible
04 Feb 9.5 05:35:50 10° SE 06:35:11 27° ESE 07:27:24 10° ENE visible
05 Feb 4.4 18:15:55 10° NW 18:26:12 58° SW 18:29:36 10° SSE visible
06 Feb 9.8 05:08:28 10° SE 05:53:02 21° ESE 06:48:27 10° ENE visible
07 Feb 8.8 06:33:09 10° S 08:13:07 52° SE 08:53:59 10° ENE visible
